Regional Weather Roundup
Issued by NWS

Home | Current Version | Previous Version | Text Only | Print | Product List | Glossary Off
Versions: 1 2 3 4 5 6 7 8 9 10 11 12 13 14 15 16 17 18 19 20 21 22 23 24 25 26 27 28 29 30 31 32 33 34 35 36 37 38 39 40 41 42 43 44 45 46 47 48 49 50

000
ASUS43 KTOP 250708
RWRKS

WEATHER ROUNDUP FOR KANSAS
NATIONAL WEATHER SERVICE GOODLAND KS
200 AM CDT MON SEP 25 2017

NOTE:  "FAIR" INDICATES FEW OR NO CLOUDS BELOW 12,000 FEET WITH NO
SIGNIFICANT WEATHER AND/OR OBSTRUCTIONS TO VISIBILITY.

KSZ001>006-013>018-027>032-041>047-250800-
NORTHWEST KANSAS

CITY           SKY/WX    TMP DP  RH WIND       PRES   REMARKS
GOODLAND       CLOUDY    53  52  96 N12       29.99R
HAYS           CLOUDY    64  62  93 N7        29.90R
HILL CITY      CLOUDY    58  58 100 E8        29.91F
RUSSELL        LGT RAIN  70  63  78 N3        29.89R
$$

KSZ061>065-074>080-084>089-250800-
SOUTHWEST KANSAS

CITY           SKY/WX    TMP DP  RH WIND       PRES   REMARKS
DODGE CITY     PTCLDY    69  64  84 S13       29.90S
ELKHART          N/A     65  67 100 S12         N/A
GARDEN CITY    CLOUDY    66  64  93 S12       29.90R
GREAT BEND     CLOUDY    73  63  70 S14       29.88S
LIBERAL        CLOUDY    68  65  90 S12       29.91R
PRATT          CLOUDY    71  60  67 S9        29.90F
$$

KSZ066>073-081>083-090>101-250800-
SOUTHEAST KANSAS

CITY           SKY/WX    TMP DP  RH WIND       PRES   REMARKS
CHANUTE        CLEAR     71  66  84 SE6       29.92F
COFFEYVILLE    MOCLDY    72  67  84 SE5       29.91F
HUTCHINSON     CLOUDY    74  65  73 SE9       29.89S
MEDICINE LODGE   N/A     74  63  68 S8        29.88F
NEWTON         CLEAR     68  63  84 SE8       29.92R
PARSONS        CLEAR     72  65  78 SE5       29.93F
WICHITA INTL   MOCLDY    72  66  81 SE9       29.89S
WICHITA JABRA  CLEAR     71  65  81 S6        29.90S
WICHITA MCCONL CLEAR     72  63  73 S7        29.90S
WINFIELD       PTCLDY    74  66  76 SE8       29.91S
$$

KSZ007>012-019>026-033>040-048>060-102>105-250800-
NORTHEAST KANSAS

CITY           SKY/WX    TMP DP  RH WIND       PRES   REMARKS
CONCORDIA      CLEAR     65  65 100 SE7       29.89S
EMPORIA        CLEAR     70  65  84 S8        29.91S
LAWRENCE       MOCLDY    70  67  90 E7        29.91S
MANHATTAN      CLEAR     74  66  76 S8        29.88F
MARYSVILLE       N/A     68  68 100 CALM      29.90S
OLATHE IND     PTCLDY    70  65  84 S7        29.94R
OLATHE EXE     PTCLDY    69  66  90 S5        29.93S
SALINA         CLEAR     72  65  78 S8        29.88S
TOPEKA BILLARD CLEAR     72  68  87 SE3       29.90S
TOPEKA FORBES  CLEAR     71  67  87 SE5       29.91S
$$




USA.gov is the U.S. government's official web portal to all federal, state and local government web resources and services.